![]() |
EMODnet Physics ERDDAP
Easier access to scientific data |
log in|
Brought to you by EMODnet Physics |
| Dataset Title: | NDBC - Collection of dew point temperature (DEWT) TimeSeries - IN SITU MultiPointTimeSeriesObservation
|
| Institution: | NDBC (Dataset ID: TS_DEWT_NDBC) |
| Information: | Summary
| License
| FGDC
| ISO 19115
| Metadata
| Background
| Subset
| Data Access Form
| Make a graph
|
| Name | Last modified | Size | Description | |
|---|---|---|---|---|
| Parent Directory | - | - | ||
| 44009_TS_DEWT_011984.nc | 26-Oct-2024 17:09 | 432760 | ||
| 44009_TS_DEWT_011987.nc | 26-Oct-2024 17:09 | 439472 | ||
| 44009_TS_DEWT_011988.nc | 26-Oct-2024 17:09 | 434903 | ||
| 44009_TS_DEWT_011989.nc | 26-Oct-2024 17:09 | 587225 | ||
| 44009_TS_DEWT_011990.nc | 26-Oct-2024 17:09 | 438508 | ||
| 44009_TS_DEWT_011991.nc | 26-Oct-2024 17:09 | 420386 | ||
| 44009_TS_DEWT_011992.nc | 26-Oct-2024 17:09 | 423381 | ||
| 44009_TS_DEWT_011994.nc | 26-Oct-2024 17:09 | 440394 | ||
| 44009_TS_DEWT_011995.nc | 26-Oct-2024 17:09 | 628516 | ||
| 44009_TS_DEWT_011996.nc | 26-Oct-2024 17:09 | 429148 | ||
| 44009_TS_DEWT_011997.nc | 26-Oct-2024 17:09 | 428292 | ||
| 44009_TS_DEWT_011998.nc | 26-Oct-2024 17:09 | 428690 | ||
| 44009_TS_DEWT_011999.nc | 26-Oct-2024 17:09 | 594096 | ||
| 44009_TS_DEWT_012000.nc | 26-Oct-2024 17:09 | 593333 | ||
| 44009_TS_DEWT_012001.nc | 26-Oct-2024 17:09 | 594440 | ||
| 44009_TS_DEWT_012002.nc | 26-Oct-2024 17:09 | 421531 | ||
| 44009_TS_DEWT_012003.nc | 26-Oct-2024 17:09 | 438538 | ||
| 44009_TS_DEWT_012004.nc | 26-Oct-2024 17:09 | 435395 | ||
| 44009_TS_DEWT_012005.nc | 26-Oct-2024 17:09 | 438594 | ||
| 44009_TS_DEWT_012006.nc | 26-Oct-2024 17:09 | 437642 | ||
| 44009_TS_DEWT_012007.nc | 26-Oct-2024 17:10 | 439482 | ||
| 44009_TS_DEWT_012008.nc | 26-Oct-2024 17:10 | 438811 | ||
| 44009_TS_DEWT_012009.nc | 26-Oct-2024 17:10 | 438091 | ||
| 44009_TS_DEWT_012010.nc | 26-Oct-2024 17:10 | 476879 | ||
| 44009_TS_DEWT_012011.nc | 26-Oct-2024 17:10 | 429908 | ||
| 44009_TS_DEWT_012012.nc | 26-Oct-2024 17:10 | 426927 | ||
| 44009_TS_DEWT_012014.nc | 26-Oct-2024 17:10 | 429814 | ||
| 44009_TS_DEWT_012015.nc | 26-Oct-2024 17:10 | 596925 | ||
| 44009_TS_DEWT_012016.nc | 26-Oct-2024 17:10 | 591410 | ||
| 44009_TS_DEWT_012018.nc | 26-Oct-2024 17:10 | 596996 | ||
| 44009_TS_DEWT_012019.nc | 26-Oct-2024 17:10 | 422631 | ||
| 44009_TS_DEWT_012020.nc | 26-Oct-2024 17:10 | 440226 | ||
| 44009_TS_DEWT_012021.nc | 26-Oct-2024 17:10 | 435745 | ||
| 44009_TS_DEWT_012022.nc | 26-Oct-2024 17:10 | 587247 | ||
| 44009_TS_DEWT_012023.nc | 26-Oct-2024 17:10 | 438864 | ||
| 44009_TS_DEWT_012025.nc | 07-Feb-2025 09:31 | 440177 | ||
| 44009_TS_DEWT_012026.nc | 02-Feb-2026 16:57 | 435097 | ||
| 44009_TS_DEWT_021984.nc | 26-Oct-2024 17:10 | 587174 | ||
| 44009_TS_DEWT_021985.nc | 26-Oct-2024 17:10 | 628193 | ||
| 44009_TS_DEWT_021987.nc | 26-Oct-2024 17:10 | 429569 | ||
| 44009_TS_DEWT_021988.nc | 26-Oct-2024 17:10 | 427925 | ||
| 44009_TS_DEWT_021989.nc | 26-Oct-2024 17:10 | 429448 | ||
| 44009_TS_DEWT_021990.nc | 26-Oct-2024 17:11 | 428542 | ||
| 44009_TS_DEWT_021991.nc | 26-Oct-2024 17:11 | 596412 | ||
| 44009_TS_DEWT_021992.nc | 26-Oct-2024 17:11 | 593890 | ||
| 44009_TS_DEWT_021994.nc | 26-Oct-2024 17:11 | 596159 | ||
| 44009_TS_DEWT_021995.nc | 26-Oct-2024 17:11 | 426674 | ||
| 44009_TS_DEWT_021996.nc | 26-Oct-2024 17:11 | 438270 | ||
| 44009_TS_DEWT_021997.nc | 26-Oct-2024 17:11 | 438204 | ||
| 44009_TS_DEWT_021998.nc | 26-Oct-2024 17:11 | 436683 | ||
| 44009_TS_DEWT_021999.nc | 26-Oct-2024 17:11 | 438890 | ||
| 44009_TS_DEWT_022000.nc | 26-Oct-2024 17:11 | 440116 | ||
| 44009_TS_DEWT_022001.nc | 26-Oct-2024 17:11 | 440220 | ||
| 44009_TS_DEWT_022002.nc | 26-Oct-2024 17:11 | 440101 | ||
| 44009_TS_DEWT_022003.nc | 26-Oct-2024 17:11 | 480423 | ||
| 44009_TS_DEWT_022004.nc | 26-Oct-2024 17:11 | 429890 | ||
| 44009_TS_DEWT_022005.nc | 26-Oct-2024 17:11 | 429665 | ||
| 44009_TS_DEWT_022006.nc | 26-Oct-2024 17:11 | 429892 | ||
| 44009_TS_DEWT_022007.nc | 26-Oct-2024 17:11 | 429411 | ||
| 44009_TS_DEWT_022008.nc | 26-Oct-2024 17:11 | 597224 | ||
| 44009_TS_DEWT_022009.nc | 26-Oct-2024 17:11 | 597757 | ||
| 44009_TS_DEWT_022010.nc | 26-Oct-2024 17:11 | 597402 | ||
| 44009_TS_DEWT_022011.nc | 26-Oct-2024 17:12 | 593709 | ||
| 44009_TS_DEWT_022012.nc | 26-Oct-2024 17:12 | 437118 | ||
| 44009_TS_DEWT_022013.nc | 26-Oct-2024 17:12 | 439911 | ||
| 44009_TS_DEWT_022014.nc | 26-Oct-2024 17:12 | 586867 | ||
| 44009_TS_DEWT_022015.nc | 26-Oct-2024 17:12 | 440104 | ||
| 44009_TS_DEWT_022016.nc | 26-Oct-2024 17:12 | 587298 | ||
| 44009_TS_DEWT_022018.nc | 26-Oct-2024 17:12 | 587291 | ||
| 44009_TS_DEWT_022019.nc | 26-Oct-2024 17:12 | 587270 | ||
| 44009_TS_DEWT_022020.nc | 26-Oct-2024 17:12 | 628666 | ||
| 44009_TS_DEWT_022021.nc | 26-Oct-2024 17:12 | 428693 | ||
| 44009_TS_DEWT_022022.nc | 26-Oct-2024 17:12 | 429498 | ||
| 44009_TS_DEWT_022023.nc | 26-Oct-2024 17:12 | 428627 | ||
| 44009_TS_DEWT_022025.nc | 01-Mar-2025 06:17 | 429391 | ||
| 44009_TS_DEWT_022026.nc | 01-Mar-2026 05:39 | 596291 | ||
| 44009_TS_DEWT_031984.nc | 26-Oct-2024 17:12 | 596001 | ||
| 44009_TS_DEWT_031985.nc | 26-Oct-2024 17:12 | 596459 | ||
| 44009_TS_DEWT_031986.nc | 26-Oct-2024 17:12 | 594100 | ||
| 44009_TS_DEWT_031987.nc | 26-Oct-2024 17:12 | 437126 | ||
| 44009_TS_DEWT_031988.nc | 26-Oct-2024 17:12 | 439592 | ||
| 44009_TS_DEWT_031989.nc | 26-Oct-2024 17:12 | 439584 | ||
| 44009_TS_DEWT_031990.nc | 26-Oct-2024 17:12 | 439722 | ||
| 44009_TS_DEWT_031991.nc | 26-Oct-2024 17:12 | 440218 | ||
| 44009_TS_DEWT_031992.nc | 26-Oct-2024 17:12 | 440246 | ||
| 44009_TS_DEWT_031994.nc | 26-Oct-2024 17:12 | 440134 | ||
| 44009_TS_DEWT_031995.nc | 26-Oct-2024 17:12 | 480216 | ||
| 44009_TS_DEWT_031996.nc | 26-Oct-2024 17:12 | 429196 | ||
| 44009_TS_DEWT_031997.nc | 26-Oct-2024 17:12 | 429328 | ||
| 44009_TS_DEWT_031998.nc | 26-Oct-2024 17:12 | 421540 | ||
| 44009_TS_DEWT_031999.nc | 26-Oct-2024 17:13 | 429129 | ||
| 44009_TS_DEWT_032000.nc | 26-Oct-2024 17:13 | 596977 | ||
| 44009_TS_DEWT_032001.nc | 26-Oct-2024 17:13 | 594235 | ||
| 44009_TS_DEWT_032002.nc | 26-Oct-2024 17:13 | 592043 | ||
| 44009_TS_DEWT_032003.nc | 26-Oct-2024 17:13 | 433679 | ||
| 44009_TS_DEWT_032004.nc | 26-Oct-2024 17:13 | 423028 | ||
| 44009_TS_DEWT_032005.nc | 26-Oct-2024 17:13 | 431227 | ||
| 44009_TS_DEWT_032006.nc | 26-Oct-2024 17:13 | 438737 | ||
| 44009_TS_DEWT_032007.nc | 26-Oct-2024 17:13 | 587249 | ||
| 44009_TS_DEWT_032008.nc | 26-Oct-2024 17:13 | 587009 | ||
| 44009_TS_DEWT_032009.nc | 26-Oct-2024 17:13 | 440006 | ||
| 44009_TS_DEWT_032010.nc | 26-Oct-2024 17:13 | 587296 | ||
| 44009_TS_DEWT_032011.nc | 26-Oct-2024 17:13 | 587220 | ||
| 44009_TS_DEWT_032012.nc | 26-Oct-2024 17:13 | 440335 | ||
| 44009_TS_DEWT_032013.nc | 26-Oct-2024 17:13 | 627675 | ||
| 44009_TS_DEWT_032014.nc | 26-Oct-2024 17:13 | 429729 | ||
| 44009_TS_DEWT_032015.nc | 26-Oct-2024 17:13 | 428479 | ||
| 44009_TS_DEWT_032016.nc | 26-Oct-2024 17:13 | 419712 | ||
| 44009_TS_DEWT_032018.nc | 26-Oct-2024 17:13 | 419673 | ||
| 44009_TS_DEWT_032019.nc | 26-Oct-2024 17:13 | 590747 | ||
| 44009_TS_DEWT_032020.nc | 26-Oct-2024 17:13 | 597665 | ||
| 44009_TS_DEWT_032021.nc | 26-Oct-2024 17:13 | 587150 | ||
| 44009_TS_DEWT_032022.nc | 26-Oct-2024 17:13 | 425085 | ||
| 44009_TS_DEWT_032023.nc | 26-Oct-2024 17:13 | 587117 | ||
| 44009_TS_DEWT_032025.nc | 02-Apr-2025 04:55 | 436323 | ||
| 44009_TS_DEWT_032026.nc | 23-Mar-2026 07:02 | 439777 | ||
| 44009_TS_DEWT_041984.nc | 26-Oct-2024 17:13 | 439752 | ||
| 44009_TS_DEWT_041985.nc | 26-Oct-2024 17:13 | 439085 | ||
| 44009_TS_DEWT_041986.nc | 26-Oct-2024 17:13 | 587294 | ||
| 44009_TS_DEWT_041987.nc | 26-Oct-2024 17:14 | 587289 | ||
| 44009_TS_DEWT_041988.nc | 26-Oct-2024 17:14 | 587076 | ||
| 44009_TS_DEWT_041989.nc | 26-Oct-2024 17:14 | 628485 | ||
| 44009_TS_DEWT_041990.nc | 26-Oct-2024 17:14 | 429505 | ||
| 44009_TS_DEWT_041991.nc | 26-Oct-2024 17:14 | 424933 | ||
| 44009_TS_DEWT_041992.nc | 26-Oct-2024 17:14 | 429533 | ||
| 44009_TS_DEWT_041994.nc | 26-Oct-2024 17:14 | 418934 | ||
| 44009_TS_DEWT_041995.nc | 26-Oct-2024 17:14 | 595528 | ||
| 44009_TS_DEWT_041996.nc | 26-Oct-2024 17:14 | 422023 | ||
| 44009_TS_DEWT_041997.nc | 26-Oct-2024 17:14 | 433383 | ||
| 44009_TS_DEWT_041998.nc | 26-Oct-2024 17:14 | 594580 | ||
| 44009_TS_DEWT_041999.nc | 26-Oct-2024 17:14 | 439727 | ||
| 44009_TS_DEWT_042000.nc | 26-Oct-2024 17:14 | 435533 | ||
| 44009_TS_DEWT_042001.nc | 26-Oct-2024 17:14 | 434503 | ||
| 44009_TS_DEWT_042002.nc | 26-Oct-2024 17:14 | 439002 | ||
| 44009_TS_DEWT_042003.nc | 26-Oct-2024 17:14 | 436244 | ||
| 44009_TS_DEWT_042004.nc | 26-Oct-2024 17:14 | 440141 | ||
| 44009_TS_DEWT_042005.nc | 26-Oct-2024 17:14 | 440200 | ||
| 44009_TS_DEWT_042006.nc | 26-Oct-2024 17:14 | 440158 | ||
| 44009_TS_DEWT_042007.nc | 26-Oct-2024 17:14 | 479468 | ||
| 44009_TS_DEWT_042008.nc | 26-Oct-2024 17:14 | 429875 | ||
| 44009_TS_DEWT_042009.nc | 26-Oct-2024 17:14 | 428747 | ||
| 44009_TS_DEWT_042010.nc | 26-Oct-2024 17:14 | 429800 | ||
| 44009_TS_DEWT_042011.nc | 26-Oct-2024 17:14 | 597450 | ||
| 44009_TS_DEWT_042012.nc | 26-Oct-2024 17:15 | 588681 | ||
| 44009_TS_DEWT_042013.nc | 26-Oct-2024 17:15 | 597784 | ||
| 44009_TS_DEWT_042014.nc | 26-Oct-2024 17:15 | 588251 | ||
| 44009_TS_DEWT_042015.nc | 26-Oct-2024 17:15 | 439598 | ||
| 44009_TS_DEWT_042016.nc | 26-Oct-2024 17:15 | 426149 | ||
| 44009_TS_DEWT_042017.nc | 26-Oct-2024 17:15 | 437965 | ||
| 44009_TS_DEWT_042018.nc | 26-Oct-2024 17:15 | 440267 | ||
| 44009_TS_DEWT_042019.nc | 26-Oct-2024 17:15 | 587267 | ||
| 44009_TS_DEWT_042020.nc | 26-Oct-2024 17:15 | 587073 | ||
| 44009_TS_DEWT_042021.nc | 26-Oct-2024 17:15 | 480602 | ||
| 44009_TS_DEWT_042022.nc | 26-Oct-2024 17:15 | 624802 | ||
| 44009_TS_DEWT_042023.nc | 26-Oct-2024 17:15 | 424270 | ||
| 44009_TS_DEWT_042025.nc | 01-May-2025 03:56 | 426987 | ||
| 44009_TS_DEWT_051984.nc | 26-Oct-2024 17:15 | 429129 | ||
| 44009_TS_DEWT_051985.nc | 26-Oct-2024 17:15 | 596261 | ||
| 44009_TS_DEWT_051986.nc | 26-Oct-2024 17:15 | 426272 | ||
| 44009_TS_DEWT_051987.nc | 26-Oct-2024 17:15 | 595905 | ||
| 44009_TS_DEWT_051988.nc | 26-Oct-2024 17:15 | 596447 | ||
| 44009_TS_DEWT_051989.nc | 26-Oct-2024 17:15 | 595709 | ||
| 44009_TS_DEWT_051990.nc | 26-Oct-2024 17:15 | 438688 | ||
| 44009_TS_DEWT_051991.nc | 26-Oct-2024 17:15 | 430852 | ||
| 44009_TS_DEWT_051992.nc | 26-Oct-2024 17:15 | 434002 | ||
| 44009_TS_DEWT_051993.nc | 26-Oct-2024 17:15 | 437795 | ||
| 44009_TS_DEWT_051994.nc | 26-Oct-2024 17:15 | 440234 | ||
| 44009_TS_DEWT_051995.nc | 26-Oct-2024 17:15 | 438675 | ||
| 44009_TS_DEWT_051996.nc | 26-Oct-2024 17:15 | 439279 | ||
| 44009_TS_DEWT_051997.nc | 26-Oct-2024 17:15 | 478679 | ||
| 44009_TS_DEWT_051998.nc | 26-Oct-2024 17:15 | 479415 | ||
| 44009_TS_DEWT_051999.nc | 26-Oct-2024 17:16 | 426284 | ||
| 44009_TS_DEWT_052000.nc | 26-Oct-2024 17:16 | 427318 | ||
| 44009_TS_DEWT_052001.nc | 26-Oct-2024 17:16 | 597047 | ||
| 44009_TS_DEWT_052002.nc | 26-Oct-2024 17:16 | 597226 | ||
| 44009_TS_DEWT_052003.nc | 26-Oct-2024 17:16 | 597729 | ||
| 44009_TS_DEWT_052004.nc | 26-Oct-2024 17:16 | 592669 | ||
| 44009_TS_DEWT_052005.nc | 26-Oct-2024 17:16 | 587070 | ||
| 44009_TS_DEWT_052006.nc | 26-Oct-2024 17:16 | 439650 | ||
| 44009_TS_DEWT_052007.nc | 26-Oct-2024 17:16 | 432788 | ||
| 44009_TS_DEWT_052008.nc | 26-Oct-2024 17:16 | 587137 | ||
| 44009_TS_DEWT_052009.nc | 26-Oct-2024 17:16 | 438778 | ||
| 44009_TS_DEWT_052010.nc | 26-Oct-2024 17:16 | 426246 | ||
| 44009_TS_DEWT_052011.nc | 26-Oct-2024 17:16 | 424422 | ||
| 44009_TS_DEWT_052012.nc | 26-Oct-2024 17:16 | 587035 | ||
| 44009_TS_DEWT_052013.nc | 26-Oct-2024 17:16 | 628289 | ||
| 44009_TS_DEWT_052014.nc | 26-Oct-2024 17:16 | 628729 | ||
| 44009_TS_DEWT_052015.nc | 26-Oct-2024 17:16 | 429691 | ||
| 44009_TS_DEWT_052016.nc | 26-Oct-2024 17:16 | 429662 | ||
| 44009_TS_DEWT_052017.nc | 26-Oct-2024 17:16 | 429697 | ||
| 44009_TS_DEWT_052018.nc | 26-Oct-2024 17:16 | 446204 | ||
| 44009_TS_DEWT_052019.nc | 26-Oct-2024 17:16 | 429692 | ||
| 44009_TS_DEWT_052020.nc | 26-Oct-2024 17:16 | 429686 | ||
| 44009_TS_DEWT_052021.nc | 26-Oct-2024 17:16 | 423014 | ||
| 44009_TS_DEWT_052022.nc | 26-Oct-2024 17:16 | 450315 | ||
| 44009_TS_DEWT_052023.nc | 26-Oct-2024 17:16 | 450428 | ||
| 44009_TS_DEWT_052025.nc | 01-Jun-2025 03:59 | 451111 | ||
| 44009_TS_DEWT_061984.nc | 26-Oct-2024 17:17 | 449447 | ||
| 44009_TS_DEWT_061985.nc | 26-Oct-2024 17:17 | 449668 | ||
| 44009_TS_DEWT_061986.nc | 26-Oct-2024 17:17 | 450447 | ||
| 44009_TS_DEWT_061987.nc | 26-Oct-2024 17:17 | 450881 | ||
| 44009_TS_DEWT_061988.nc | 26-Oct-2024 17:17 | 429919 | ||
| 44009_TS_DEWT_061989.nc | 26-Oct-2024 17:17 | 429904 | ||
| 44009_TS_DEWT_061990.nc | 26-Oct-2024 17:17 | 449447 | ||
| 44009_TS_DEWT_061991.nc | 26-Oct-2024 17:17 | 450188 | ||
| 44009_TS_DEWT_061992.nc | 26-Oct-2024 17:17 | 429916 | ||
| 44009_TS_DEWT_061993.nc | 26-Oct-2024 17:17 | 452163 | ||
| 44009_TS_DEWT_061994.nc | 26-Oct-2024 17:17 | 450249 | ||
| 44009_TS_DEWT_061995.nc | 26-Oct-2024 17:17 | 450694 | ||
| 44009_TS_DEWT_061996.nc | 26-Oct-2024 17:17 | 437442 | ||
| 44009_TS_DEWT_061997.nc | 26-Oct-2024 17:17 | 1266956 | ||
| 44009_TS_DEWT_061998.nc | 26-Oct-2024 17:17 | 1262158 | ||
| 44009_TS_DEWT_061999.nc | 26-Oct-2024 17:17 | 1265338 | ||
| 44009_TS_DEWT_062000.nc | 26-Oct-2024 17:17 | 1264713 | ||
| 44009_TS_DEWT_062001.nc | 26-Oct-2024 17:18 | 1264687 | ||
| 44009_TS_DEWT_062002.nc | 26-Oct-2024 17:18 | 3308829 | ||
| 44009_TS_DEWT_062003.nc | 26-Oct-2024 17:18 | 428693 | ||
| 44009_TS_DEWT_062004.nc | 26-Oct-2024 17:18 | 429030 | ||
| 44009_TS_DEWT_062005.nc | 26-Oct-2024 17:18 | 428692 | ||
| 44009_TS_DEWT_062006.nc | 26-Oct-2024 17:18 | 428528 | ||
| 44009_TS_DEWT_062007.nc | 26-Oct-2024 17:18 | 429038 | ||
| 44009_TS_DEWT_062008.nc | 26-Oct-2024 17:18 | 428330 | ||
| 44009_TS_DEWT_062009.nc | 26-Oct-2024 17:18 | 428692 | ||
| 44009_TS_DEWT_062010.nc | 26-Oct-2024 17:18 | 427978 | ||
| 44009_TS_DEWT_062011.nc | 26-Oct-2024 17:18 | 447786 | ||
| 44009_TS_DEWT_062012.nc | 26-Oct-2024 17:18 | 447881 | ||
| 44009_TS_DEWT_062013.nc | 26-Oct-2024 17:18 | 445907 | ||
| 44009_TS_DEWT_062014.nc | 26-Oct-2024 17:18 | 448484 | ||
| 44009_TS_DEWT_062015.nc | 26-Oct-2024 17:18 | 446843 | ||
| 44009_TS_DEWT_062016.nc | 26-Oct-2024 17:18 | 447338 | ||
| 44009_TS_DEWT_062017.nc | 26-Oct-2024 17:18 | 447962 | ||
| 44009_TS_DEWT_062018.nc | 26-Oct-2024 17:18 | 429232 | ||
| 44009_TS_DEWT_062019.nc | 26-Oct-2024 17:19 | 428881 | ||
| 44009_TS_DEWT_062020.nc | 26-Oct-2024 17:19 | 446158 | ||
| 44009_TS_DEWT_062021.nc | 26-Oct-2024 17:19 | 447194 | ||
| 44009_TS_DEWT_062022.nc | 26-Oct-2024 17:19 | 422930 | ||
| 44009_TS_DEWT_062023.nc | 26-Oct-2024 17:19 | 446381 | ||
| 44009_TS_DEWT_062025.nc | 01-Jul-2025 03:59 | 449574 | ||
| 44009_TS_DEWT_071984.nc | 26-Oct-2024 17:19 | 447399 | ||
| 44009_TS_DEWT_071985.nc | 26-Oct-2024 17:19 | 428868 | ||
| 44009_TS_DEWT_071986.nc | 26-Oct-2024 17:19 | 1029108 | ||
| 44009_TS_DEWT_071987.nc | 26-Oct-2024 17:19 | 667963 | ||
| 44009_TS_DEWT_071988.nc | 26-Oct-2024 17:19 | 1030320 | ||
| 44009_TS_DEWT_071989.nc | 26-Oct-2024 17:19 | 1028659 | ||
| 44009_TS_DEWT_071990.nc | 26-Oct-2024 17:19 | 1025963 | ||
| 44009_TS_DEWT_071991.nc | 26-Oct-2024 17:19 | 4598813 | ||
| 44009_TS_DEWT_071992.nc | 26-Oct-2024 17:19 | 429697 | ||
| 44009_TS_DEWT_071993.nc | 26-Oct-2024 17:19 | 429667 | ||
| 44009_TS_DEWT_071994.nc | 26-Oct-2024 17:19 | 429603 | ||
| 44009_TS_DEWT_071995.nc | 26-Oct-2024 17:19 | 429697 | ||
| 44009_TS_DEWT_071996.nc | 26-Oct-2024 17:20 | 429692 | ||
| 44009_TS_DEWT_071997.nc | 26-Oct-2024 17:20 | 429698 | ||
| 44009_TS_DEWT_071998.nc | 26-Oct-2024 17:20 | 429685 | ||
| 44009_TS_DEWT_071999.nc | 26-Oct-2024 17:20 | 429686 | ||
| 44009_TS_DEWT_072000.nc | 26-Oct-2024 17:20 | 449499 | ||
| 44009_TS_DEWT_072001.nc | 26-Oct-2024 17:20 | 450943 | ||
| 44009_TS_DEWT_072002.nc | 26-Oct-2024 17:20 | 449669 | ||
| 44009_TS_DEWT_072003.nc | 26-Oct-2024 17:20 | 450435 | ||
| 44009_TS_DEWT_072004.nc | 26-Oct-2024 17:20 | 449988 | ||
| 44009_TS_DEWT_072005.nc | 26-Oct-2024 17:20 | 450767 | ||
| 44009_TS_DEWT_072006.nc | 26-Oct-2024 17:20 | 451761 | ||
| 44009_TS_DEWT_072007.nc | 26-Oct-2024 17:20 | 429911 | ||
| 44009_TS_DEWT_072008.nc | 26-Oct-2024 17:20 | 429911 | ||
| 44009_TS_DEWT_072009.nc | 26-Oct-2024 17:20 | 441047 | ||
| 44009_TS_DEWT_072010.nc | 26-Oct-2024 17:20 | 439702 | ||
| 44009_TS_DEWT_072011.nc | 26-Oct-2024 17:20 | 441169 | ||
| 44009_TS_DEWT_072012.nc | 26-Oct-2024 17:20 | 450634 | ||
| 44009_TS_DEWT_072013.nc | 26-Oct-2024 17:20 | 449863 | ||
| 44009_TS_DEWT_072014.nc | 26-Oct-2024 17:20 | 451146 | ||
| 44009_TS_DEWT_072015.nc | 26-Oct-2024 17:20 | 429917 | ||
| 44009_TS_DEWT_072016.nc | 26-Oct-2024 17:20 | 1263190 | ||
| 44009_TS_DEWT_072017.nc | 26-Oct-2024 17:20 | 434869 | ||
| 44009_TS_DEWT_072018.nc | 26-Oct-2024 17:20 | 1007723 | ||
| 44009_TS_DEWT_072019.nc | 26-Oct-2024 17:20 | 1264644 | ||
| 44009_TS_DEWT_072020.nc | 26-Oct-2024 17:20 | 1257706 | ||
| 44009_TS_DEWT_072021.nc | 26-Oct-2024 17:21 | 2647214 | ||
| 44009_TS_DEWT_072022.nc | 26-Oct-2024 17:21 | 429363 | ||
| 44009_TS_DEWT_072023.nc | 26-Oct-2024 17:21 | 429366 | ||
| 44009_TS_DEWT_072025.nc | 01-Aug-2025 04:09 | 429357 | ||
| 44009_TS_DEWT_081984.nc | 26-Oct-2024 17:21 | 429365 | ||
| 44009_TS_DEWT_081985.nc | 26-Oct-2024 17:21 | 429359 | ||
| 44009_TS_DEWT_081986.nc | 26-Oct-2024 17:21 | 429047 | ||
| 44009_TS_DEWT_081987.nc | 26-Oct-2024 17:21 | 429370 | ||
| 44009_TS_DEWT_081988.nc | 26-Oct-2024 17:21 | 429365 | ||
| 44009_TS_DEWT_081989.nc | 26-Oct-2024 17:21 | 449055 | ||
| 44009_TS_DEWT_081990.nc | 26-Oct-2024 17:21 | 449330 | ||
| 44009_TS_DEWT_081991.nc | 26-Oct-2024 17:21 | 449645 | ||
| 44009_TS_DEWT_081992.nc | 26-Oct-2024 17:21 | 430372 | ||
| 44009_TS_DEWT_081993.nc | 26-Oct-2024 17:21 | 448775 | ||
| 44009_TS_DEWT_081994.nc | 26-Oct-2024 17:21 | 449068 | ||
| 44009_TS_DEWT_081995.nc | 26-Oct-2024 17:21 | 450263 | ||
| 44009_TS_DEWT_081996.nc | 26-Oct-2024 17:21 | 429530 | ||
| 44009_TS_DEWT_081997.nc | 26-Oct-2024 17:21 | 429568 | ||
| 44009_TS_DEWT_081998.nc | 26-Oct-2024 17:21 | 450558 | ||
| 44009_TS_DEWT_081999.nc | 26-Oct-2024 17:21 | 429568 | ||
| 44009_TS_DEWT_082000.nc | 26-Oct-2024 17:22 | 448990 | ||
| 44009_TS_DEWT_082001.nc | 26-Oct-2024 17:22 | 449726 | ||
| 44009_TS_DEWT_082002.nc | 26-Oct-2024 17:22 | 449052 | ||
| 44009_TS_DEWT_082003.nc | 26-Oct-2024 17:22 | 429566 | ||
| 44009_TS_DEWT_082004.nc | 26-Oct-2024 17:22 | 1113096 | ||
| 44009_TS_DEWT_082005.nc | 26-Oct-2024 17:22 | 1116540 | ||
| 44009_TS_DEWT_082006.nc | 26-Oct-2024 17:22 | 1109869 | ||
| 44009_TS_DEWT_082007.nc | 26-Oct-2024 17:22 | 1112324 | ||
| 44009_TS_DEWT_082008.nc | 26-Oct-2024 17:22 | 908720 | ||
| 44009_TS_DEWT_082009.nc | 26-Oct-2024 17:22 | 4789809 | ||
| 44009_TS_DEWT_082010.nc | 26-Oct-2024 17:22 | 421317 | ||
| 44009_TS_DEWT_082011.nc | 26-Oct-2024 17:22 | 429685 | ||
| 44009_TS_DEWT_082012.nc | 26-Oct-2024 17:22 | 429674 | ||
| 44009_TS_DEWT_082013.nc | 26-Oct-2024 17:22 | 448295 | ||
| 44009_TS_DEWT_082014.nc | 26-Oct-2024 17:22 | 429673 | ||
| 44009_TS_DEWT_082015.nc | 26-Oct-2024 17:22 | 429699 | ||
| 44009_TS_DEWT_082017.nc | 26-Oct-2024 17:22 | 429686 | ||
| 44009_TS_DEWT_082018.nc | 26-Oct-2024 17:22 | 429692 | ||
| 44009_TS_DEWT_082019.nc | 26-Oct-2024 17:22 | 450091 | ||
| 44009_TS_DEWT_082020.nc | 26-Oct-2024 17:23 | 449721 | ||
| 44009_TS_DEWT_082021.nc | 26-Oct-2024 17:23 | 450339 | ||
| 44009_TS_DEWT_082022.nc | 26-Oct-2024 17:23 | 435276 | ||
| 44009_TS_DEWT_082023.nc | 26-Oct-2024 17:23 | 451325 | ||
| 44009_TS_DEWT_082025.nc | 01-Sep-2025 04:14 | 450198 | ||
| 44009_TS_DEWT_091984.nc | 26-Oct-2024 17:23 | 451610 | ||
| 44009_TS_DEWT_091985.nc | 26-Oct-2024 17:23 | 429909 | ||
| 44009_TS_DEWT_091986.nc | 26-Oct-2024 17:23 | 429906 | ||
| 44009_TS_DEWT_091987.nc | 26-Oct-2024 17:23 | 450401 | ||
| 44009_TS_DEWT_091988.nc | 26-Oct-2024 17:23 | 446404 | ||
| 44009_TS_DEWT_091989.nc | 26-Oct-2024 17:23 | 429906 | ||
| 44009_TS_DEWT_091990.nc | 26-Oct-2024 17:23 | 450626 | ||
| 44009_TS_DEWT_091991.nc | 26-Oct-2024 17:23 | 450176 | ||
| 44009_TS_DEWT_091992.nc | 26-Oct-2024 17:23 | 449710 | ||
| 44009_TS_DEWT_091993.nc | 26-Oct-2024 17:23 | 429894 | ||
| 44009_TS_DEWT_091994.nc | 26-Oct-2024 17:23 | 1263726 | ||
| 44009_TS_DEWT_091995.nc | 26-Oct-2024 17:23 | 1266370 | ||
| 44009_TS_DEWT_091996.nc | 26-Oct-2024 17:23 | 1262058 | ||
| 44009_TS_DEWT_091997.nc | 26-Oct-2024 17:23 | 1265242 | ||
| 44009_TS_DEWT_091998.nc | 26-Oct-2024 17:23 | 1143044 | ||
| 44009_TS_DEWT_091999.nc | 26-Oct-2024 17:24 | 5411642 | ||
| 44009_TS_DEWT_092000.nc | 26-Oct-2024 17:24 | 429351 | ||
| 44009_TS_DEWT_092001.nc | 26-Oct-2024 17:24 | 422671 | ||
| 44009_TS_DEWT_092002.nc | 26-Oct-2024 17:24 | 429320 | ||
| 44009_TS_DEWT_092003.nc | 26-Oct-2024 17:24 | 449659 | ||
| 44009_TS_DEWT_092004.nc | 26-Oct-2024 17:24 | 429370 | ||
| 44009_TS_DEWT_092005.nc | 26-Oct-2024 17:24 | 429365 | ||
| 44009_TS_DEWT_092006.nc | 26-Oct-2024 17:24 | 429367 | ||
| 44009_TS_DEWT_092007.nc | 26-Oct-2024 17:24 | 429360 | ||
| 44009_TS_DEWT_092008.nc | 26-Oct-2024 17:24 | 426401 | ||
| 44009_TS_DEWT_092009.nc | 26-Oct-2024 17:24 | 448247 | ||
| 44009_TS_DEWT_092010.nc | 26-Oct-2024 17:24 | 449983 | ||
| 44009_TS_DEWT_092011.nc | 26-Oct-2024 17:24 | 449624 | ||
| 44009_TS_DEWT_092012.nc | 26-Oct-2024 17:24 | 448717 | ||
| 44009_TS_DEWT_092013.nc | 26-Oct-2024 17:24 | 448693 | ||
| 44009_TS_DEWT_092014.nc | 26-Oct-2024 17:24 | 430916 | ||
| 44009_TS_DEWT_092015.nc | 26-Oct-2024 17:24 | 449624 | ||
| 44009_TS_DEWT_092017.nc | 26-Oct-2024 17:24 | 429571 | ||
| 44009_TS_DEWT_092018.nc | 26-Oct-2024 17:25 | 429568 | ||
| 44009_TS_DEWT_092019.nc | 26-Oct-2024 17:25 | 448855 | ||
| 44009_TS_DEWT_092020.nc | 26-Oct-2024 17:25 | 435361 | ||
| 44009_TS_DEWT_092021.nc | 26-Oct-2024 17:25 | 429567 | ||
| 44009_TS_DEWT_092022.nc | 26-Oct-2024 17:25 | 435192 | ||
| 44009_TS_DEWT_092023.nc | 26-Oct-2024 17:25 | 450325 | ||
| 44009_TS_DEWT_092025.nc | 01-Oct-2025 03:51 | 450301 | ||
| 44009_TS_DEWT_101984.nc | 26-Oct-2024 17:25 | 429571 | ||
| 44009_TS_DEWT_101985.nc | 26-Oct-2024 17:25 | 618193 | ||
| 44009_TS_DEWT_101986.nc | 26-Oct-2024 17:25 | 1115958 | ||
| 44009_TS_DEWT_101987.nc | 26-Oct-2024 17:25 | 1113015 | ||
| 44009_TS_DEWT_101988.nc | 26-Oct-2024 17:25 | 1115536 | ||
| 44009_TS_DEWT_101989.nc | 26-Oct-2024 17:25 | 907544 | ||
| 44009_TS_DEWT_101990.nc | 26-Oct-2024 17:25 | 5263157 | ||
| 44009_TS_DEWT_101991.nc | 26-Oct-2024 17:25 | 429686 | ||
| 44009_TS_DEWT_101992.nc | 26-Oct-2024 17:25 | 429694 | ||
| 44009_TS_DEWT_101993.nc | 26-Oct-2024 17:25 | 449923 | ||
| 44009_TS_DEWT_101994.nc | 26-Oct-2024 17:25 | 431968 | ||
| 44009_TS_DEWT_101996.nc | 26-Oct-2024 17:25 | 422900 | ||
| 44009_TS_DEWT_101997.nc | 26-Oct-2024 17:25 | 429687 | ||
| 44009_TS_DEWT_101998.nc | 26-Oct-2024 17:25 | 429697 | ||
| 44009_TS_DEWT_101999.nc | 26-Oct-2024 17:26 | 429698 | ||
| 44009_TS_DEWT_102000.nc | 26-Oct-2024 17:26 | 450412 | ||
| 44009_TS_DEWT_102001.nc | 26-Oct-2024 17:26 | 450148 | ||
| 44009_TS_DEWT_102002.nc | 26-Oct-2024 17:26 | 433716 | ||
| 44009_TS_DEWT_102003.nc | 26-Oct-2024 17:26 | 449940 | ||
| 44009_TS_DEWT_102004.nc | 26-Oct-2024 17:26 | 449663 | ||
| 44009_TS_DEWT_102005.nc | 26-Oct-2024 17:26 | 449425 | ||
| 44009_TS_DEWT_102006.nc | 26-Oct-2024 17:26 | 450128 | ||
| 44009_TS_DEWT_102007.nc | 26-Oct-2024 17:26 | 450550 | ||
| 44009_TS_DEWT_102008.nc | 26-Oct-2024 17:26 | 429905 | ||
| 44009_TS_DEWT_102009.nc | 26-Oct-2024 17:26 | 429910 | ||
| 44009_TS_DEWT_102010.nc | 26-Oct-2024 17:26 | 425647 | ||
| 44009_TS_DEWT_102011.nc | 26-Oct-2024 17:26 | 426261 | ||
| 44009_TS_DEWT_102012.nc | 26-Oct-2024 17:26 | 429910 | ||
| 44009_TS_DEWT_102013.nc | 26-Oct-2024 17:26 | 427924 | ||
| 44009_TS_DEWT_102014.nc | 26-Oct-2024 17:26 | 423142 | ||
| 44009_TS_DEWT_102015.nc | 26-Oct-2024 17:26 | 451373 | ||
| 44009_TS_DEWT_102017.nc | 26-Oct-2024 17:26 | 451106 | ||
| 44009_TS_DEWT_102018.nc | 26-Oct-2024 17:26 | 429910 | ||
| 44009_TS_DEWT_102019.nc | 26-Oct-2024 17:26 | 1095061 | ||
| 44009_TS_DEWT_102020.nc | 26-Oct-2024 17:26 | 1266247 | ||
| 44009_TS_DEWT_102021.nc | 26-Oct-2024 17:27 | 1265872 | ||
| 44009_TS_DEWT_102022.nc | 26-Oct-2024 17:27 | 1142952 | ||
| 44009_TS_DEWT_102023.nc | 26-Oct-2024 17:27 | 4736021 | ||
| 44009_TS_DEWT_102024.nc | 12-Jan-2025 20:27 | 429692 | ||
| 44009_TS_DEWT_102025.nc | 01-Nov-2025 05:35 | 424819 | ||
| 44009_TS_DEWT_111984.nc | 26-Oct-2024 17:27 | 429678 | ||
| 44009_TS_DEWT_111985.nc | 26-Oct-2024 17:27 | 448986 | ||
| 44009_TS_DEWT_111986.nc | 26-Oct-2024 17:27 | 450352 | ||
| 44009_TS_DEWT_111987.nc | 26-Oct-2024 17:27 | 429581 | ||
| 44009_TS_DEWT_111988.nc | 26-Oct-2024 17:27 | 429693 | ||
| 44009_TS_DEWT_111989.nc | 26-Oct-2024 17:27 | 429686 | ||
| 44009_TS_DEWT_111990.nc | 26-Oct-2024 17:27 | 429697 | ||
| 44009_TS_DEWT_111991.nc | 26-Oct-2024 17:27 | 450157 | ||
| 44009_TS_DEWT_111993.nc | 26-Oct-2024 17:27 | 449709 | ||
| 44009_TS_DEWT_111994.nc | 26-Oct-2024 17:27 | 450232 | ||
| 44009_TS_DEWT_111995.nc | 26-Oct-2024 17:27 | 449877 | ||
| 44009_TS_DEWT_111996.nc | 26-Oct-2024 17:27 | 450079 | ||
| 44009_TS_DEWT_111997.nc | 26-Oct-2024 17:27 | 450501 | ||
| 44009_TS_DEWT_111998.nc | 26-Oct-2024 17:27 | 451110 | ||
| 44009_TS_DEWT_111999.nc | 26-Oct-2024 17:27 | 450903 | ||
| 44009_TS_DEWT_112000.nc | 26-Oct-2024 17:27 | 429910 | ||
| 44009_TS_DEWT_112001.nc | 26-Oct-2024 17:27 | 429911 | ||
| 44009_TS_DEWT_112002.nc | 26-Oct-2024 17:27 | 441999 | ||
| 44009_TS_DEWT_112003.nc | 26-Oct-2024 17:27 | 429890 | ||
| 44009_TS_DEWT_112004.nc | 26-Oct-2024 17:28 | 450352 | ||
| 44009_TS_DEWT_112005.nc | 26-Oct-2024 17:28 | 450051 | ||
| 44009_TS_DEWT_112006.nc | 26-Oct-2024 17:28 | 451274 | ||
| 44009_TS_DEWT_112007.nc | 26-Oct-2024 17:28 | 451238 | ||
| 44009_TS_DEWT_112008.nc | 26-Oct-2024 17:28 | 671027 | ||
| 44009_TS_DEWT_112009.nc | 26-Oct-2024 17:28 | 1143306 | ||
| 44009_TS_DEWT_112010.nc | 26-Oct-2024 17:28 | 1267018 | ||
| 44009_TS_DEWT_112011.nc | 26-Oct-2024 17:28 | 1266749 | ||
| 44009_TS_DEWT_112012.nc | 26-Oct-2024 17:28 | 418876 | ||
| 44009_TS_DEWT_112013.nc | 26-Oct-2024 17:28 | 5264902 | ||
| 44009_TS_DEWT_112014.nc | 26-Oct-2024 17:28 | 429362 | ||
| 44009_TS_DEWT_112015.nc | 26-Oct-2024 17:28 | 429320 | ||
| 44009_TS_DEWT_112017.nc | 26-Oct-2024 17:28 | 429357 | ||
| 44009_TS_DEWT_112018.nc | 26-Oct-2024 17:28 | 449673 | ||
| 44009_TS_DEWT_112019.nc | 26-Oct-2024 17:28 | 449691 | ||
| 44009_TS_DEWT_112020.nc | 26-Oct-2024 17:28 | 429307 | ||
| 44009_TS_DEWT_112021.nc | 26-Oct-2024 17:28 | 429362 | ||
| 44009_TS_DEWT_112022.nc | 26-Oct-2024 17:28 | 429368 | ||
| 44009_TS_DEWT_112023.nc | 26-Oct-2024 17:28 | 429357 | ||
| 44009_TS_DEWT_112024.nc | 17-Jan-2025 14:26 | 449847 | ||
| 44009_TS_DEWT_112025.nc | 01-Dec-2025 05:54 | 450282 | ||
| 44009_TS_DEWT_121984.nc | 26-Oct-2024 17:29 | 449187 | ||
| 44009_TS_DEWT_121985.nc | 26-Oct-2024 17:29 | 449675 | ||
| 44009_TS_DEWT_121986.nc | 26-Oct-2024 17:29 | 449985 | ||
| 44009_TS_DEWT_121987.nc | 26-Oct-2024 17:29 | 448713 | ||
| 44009_TS_DEWT_121989.nc | 26-Oct-2024 17:29 | 449788 | ||
| 44009_TS_DEWT_121990.nc | 26-Oct-2024 17:29 | 437833 | ||
| 44009_TS_DEWT_121991.nc | 26-Oct-2024 17:29 | 429569 | ||
| 44009_TS_DEWT_121993.nc | 26-Oct-2024 17:29 | 429567 | ||
| 44009_TS_DEWT_121994.nc | 26-Oct-2024 17:29 | 419024 | ||
| 44009_TS_DEWT_121995.nc | 26-Oct-2024 17:29 | 428944 | ||
| 44009_TS_DEWT_121996.nc | 26-Oct-2024 17:29 | 429564 | ||
| 44009_TS_DEWT_121997.nc | 26-Oct-2024 17:29 | 449336 | ||
| 44009_TS_DEWT_121998.nc | 26-Oct-2024 17:29 | 448976 | ||
| 44009_TS_DEWT_121999.nc | 26-Oct-2024 17:29 | 450398 | ||
| 44009_TS_DEWT_122000.nc | 26-Oct-2024 17:29 | 449044 | ||
| 44009_TS_DEWT_122001.nc | 26-Oct-2024 17:29 | 1114117 | ||
| 44009_TS_DEWT_122002.nc | 26-Oct-2024 17:29 | 1116090 | ||
| 44009_TS_DEWT_122003.nc | 26-Oct-2024 17:29 | 1112219 | ||
| 44009_TS_DEWT_122004.nc | 26-Oct-2024 17:29 | 1118663 | ||
| 44009_TS_DEWT_122005.nc | 26-Oct-2024 17:29 | 936977 | ||
| 44009_TS_DEWT_122006.nc | 26-Oct-2024 17:30 | 4577850 | ||
| 44009_TS_DEWT_122007.nc | 26-Oct-2024 17:30 | 429686 | ||
| 44009_TS_DEWT_122008.nc | 26-Oct-2024 17:30 | 429669 | ||
| 44009_TS_DEWT_122009.nc | 26-Oct-2024 17:30 | 429692 | ||
| 44009_TS_DEWT_122010.nc | 26-Oct-2024 17:30 | 449707 | ||
| 44009_TS_DEWT_122011.nc | 26-Oct-2024 17:30 | 451157 | ||
| 44009_TS_DEWT_122012.nc | 26-Oct-2024 17:30 | 429695 | ||
| 44009_TS_DEWT_122013.nc | 26-Oct-2024 17:30 | 429685 | ||
| 44009_TS_DEWT_122014.nc | 26-Oct-2024 17:30 | 429690 | ||
| 44009_TS_DEWT_122015.nc | 26-Oct-2024 17:30 | 429696 | ||
| 44009_TS_DEWT_122017.nc | 26-Oct-2024 17:30 | 450776 | ||
| 44009_TS_DEWT_122018.nc | 26-Oct-2024 17:30 | 449978 | ||
| 44009_TS_DEWT_122019.nc | 26-Oct-2024 17:30 | 451229 | ||
| 44009_TS_DEWT_122020.nc | 26-Oct-2024 17:30 | 449779 | ||
| 44009_TS_DEWT_122021.nc | 26-Oct-2024 17:30 | 451738 | ||
| 44009_TS_DEWT_122022.nc | 26-Oct-2024 17:30 | 450030 | ||
| 44009_TS_DEWT_122023.nc | 23-Dec-2024 13:01 | 451577 | ||
| 44009_TS_DEWT_122024.nc | 22-Jan-2025 16:19 | 429891 | ||
| 44009_TS_DEWT_122025.nc | 01-Jan-2026 06:03 | 429911 | ||